sat.trackr.live / text

‹ back to catalog

STARLINK-1373

NORAD 45544 · 2020-025P

PAYLOAD ACTIVE UNKNOWN

§ Identity

Operator
Country
US
Launch date
2020-04-22
Launch site
AFETR
Launch vehicle
Mass (kg)
RCS (m²)

Purposes: comms

External: N2YO · Heavens-Above · Gunter

§ Orbital elements

Epoch: 2026-05-24T23:26:16.417824Z

Period
91.84 min
Inclination
53.0453°
Eccentricity
0.0004064
Mean motion
15.67992149 rev/d
Perigee alt
361.9 km
Apogee alt
367.4 km
Semi-major
6,742.8 km
B*
4.4372e-4
RAAN
77.8195°
Arg perigee
41.4434°
Mean anomaly
318.6889°
Rev number
33,724

§ Raw data

STARLINK-13731 45544U 20025P   26144.97657891  .00049833  00000+0  44372-3 0  99992 45544  53.0453  77.8195 0004064  41.4434 318.6889 15.67992149337240

JSON: /api/v1/satellites/45544 · /tle

For live sub-satellite position, see the globe view (requires WebGL).

§ Visibility from observer

Set your observer location to see the next 7 days of passes ≥ 10°. The values pass through the URL so the page stays shareable.

No JS? Fill the form by hand. The geolocation button needs JavaScript.